Location: Killarney
(45.9719°N, 81.5115°W)
Time: 05:40:30
(UTC-04:00)

ISS - Visible Passes

Search period start: 21 October 2019 00:00
Search period end: 31 October 2019 00:00
Orbit: 411 x 421 km, 51.6° (Epoch: 21 October)

Date Brightness Start Highest point End Pass type
(mag) Time Alt. Az. Time Alt. Az. Time Alt. Az.
22 Oct -0.2 07:03:25 10° SE 07:03:49 10° SE 07:04:14 10° SE visible
24 Oct -1.5 07:00:12 10° SSW 07:03:00 25° SE 07:05:49 10° E visible
25 Oct -0.9 06:12:30 10° S 06:14:35 16° SE 06:16:41 10° E visible
26 Oct -3.2 06:59:00 10° SW 07:02:19 59° SSE 07:05:39 10° ENE visible
27 Oct -2.4 06:12:29 26° S 06:13:47 36° SE 06:16:55 10° ENE visible
28 Oct -1.2 05:26:18 20° ESE 05:26:18 20° ESE 05:28:00 10° E visible
28 Oct -3.7 06:59:12 16° WSW 07:01:46 65° NNW 07:05:08 10° ENE visible
29 Oct -3.9 06:12:53 75° SW 06:13:07 85° SSE 06:16:30 10° ENE visible
30 Oct -1.2 05:26:26 22° ENE 05:26:26 22° ENE 05:27:48 10° ENE visible
30 Oct -3.0 06:59:20 19° WNW 07:01:19 39° NNW 07:04:31 10° ENE visible
